����,���ϕ���(m/s),���ϕ���,�ő�u�ԕ���(m/s),�ő啗��������,�C��(��),���x(%),10���Ԉړ��ώZ�J��(mm),1���Ԉړ��ώZ�J��(mm),���J��(mm),�݌v�J��(mm)
2023-05-29T00:00:00+09:00,2.5,��쐼,5,��,20.7,78.4,0,0,0,0
2023-05-29T00:01:00+09:00,2.5,��쐼,5,��,20.7,78.5,0,0,0,0
2023-05-29T00:02:00+09:00,2.6,��쐼,5,��,20.7,78.5,0,0,0,0
2023-05-29T00:03:00+09:00,2.5,��쐼,5,��,20.7,78.6,0,0,0,0
2023-05-29T00:04:00+09:00,2.4,�쐼,4.4,��,20.7,78.6,0,0,0,0
2023-05-29T00:05:00+09:00,2.3,�쐼,3.9,���쐼,20.7,78.6,0,0,0,0
2023-05-29T00:06:00+09:00,2.3,�쐼,3.9,���쐼,20.7,78.6,0,0,0,0
2023-05-29T00:07:00+09:00,2.5,�쐼,4.5,��쐼,20.7,78.7,0,0,0,0
2023-05-29T00:08:00+09:00,2.6,�쐼,4.5,��쐼,20.7,78.7,0,0,0,0
2023-05-29T00:09:00+09:00,2.5,�쐼,4.5,��쐼,20.7,78.7,0,0,0,0
2023-05-29T00:10:00+09:00,2.4,�쐼,4.5,��쐼,20.7,78.8,0,0,0,0
2023-05-29T00:11:00+09:00,2.4,���쐼,4.5,��쐼,20.7,78.9,0,0,0,0
2023-05-29T00:12:00+09:00,2.3,���쐼,4.5,��쐼,20.8,79,0,0,0,0
2023-05-29T00:13:00+09:00,2.4,���쐼,4.5,��쐼,20.8,79.2,0,0,0,0
2023-05-29T00:14:00+09:00,2.4,���쐼,4.5,��쐼,20.8,79.1,0,0,0,0
2023-05-29T00:15:00+09:00,2.4,���쐼,4.5,��쐼,20.8,79,0,0,0,0
2023-05-29T00:16:00+09:00,2.4,���쐼,4.5,��쐼,20.8,78.9,0,0,0,0
2023-05-29T00:17:00+09:00,2.2,���쐼,3.9,���쐼,20.8,78.9,0,0,0,0
2023-05-29T00:18:00+09:00,2.2,��,3.9,���쐼,20.8,79.1,0,0,0,0
2023-05-29T00:19:00+09:00,2.2,��,3.9,���쐼,20.8,79.3,0,0,0,0
2023-05-29T00:20:00+09:00,2.3,��,3.9,���쐼,20.8,79.4,0,0,0,0
2023-05-29T00:21:00+09:00,2.4,��,3.9,���쐼,20.8,79.3,0,0,0,0
2023-05-29T00:22:00+09:00,2.4,��,3.9,���쐼,20.8,79.4,0,0,0,0
2023-05-29T00:23:00+09:00,2.3,��,3.9,���쐼,20.8,79.5,0,0,0,0
2023-05-29T00:24:00+09:00,2.3,��,4.4,���k��,20.8,79.6,0,0,0,0
2023-05-29T00:25:00+09:00,2.2,��,4.4,���k��,20.8,79.5,0,0,0,0
2023-05-29T00:26:00+09:00,2.2,��,4.4,���k��,20.8,79.5,0,0,0,0
2023-05-29T00:27:00+09:00,2.1,��,4.4,���k��,20.8,79.7,0,0,0,0
2023-05-29T00:28:00+09:00,2.1,��,4.4,���k��,20.8,79.8,0,0,0,0
2023-05-29T00:29:00+09:00,2.1,��,4.4,���k��,20.8,79.7,0,0,0,0
2023-05-29T00:30:00+09:00,2.2,��,4.4,���k��,20.8,79.6,0,0,0,0
2023-05-29T00:31:00+09:00,2.4,��,5.2,���쐼,20.7,79.7,0,0,0,0
2023-05-29T00:32:00+09:00,2.5,��,5.3,��,20.7,79.8,0,0,0,0
2023-05-29T00:33:00+09:00,2.6,��,5.3,��,20.7,79.8,0,0,0,0
2023-05-29T00:34:00+09:00,2.6,��,5.3,��,20.7,79.7,0,0,0,0
2023-05-29T00:35:00+09:00,2.5,��,5.3,��,20.7,79.8,0,0,0,0
2023-05-29T00:36:00+09:00,2.5,��,5.3,��,20.7,79.8,0,0,0,0
2023-05-29T00:37:00+09:00,2.5,��,5.3,��,20.7,79.9,0,0,0,0
2023-05-29T00:38:00+09:00,2.4,��,5.3,��,20.7,80,0,0,0,0
2023-05-29T00:39:00+09:00,2.5,���쐼,5.3,��,20.7,80.1,0,0,0,0
2023-05-29T00:40:00+09:00,2.3,���쐼,5.3,��,20.7,80.1,0,0,0,0
2023-05-29T00:41:00+09:00,2.1,��,5.3,��,20.7,80.2,0,0,0,0
2023-05-29T00:42:00+09:00,1.9,��,4.6,��,20.6,80.3,0,0,0,0
2023-05-29T00:43:00+09:00,1.8,��,3.7,��,20.6,80.5,0,0,0,0
2023-05-29T00:44:00+09:00,1.8,��,3.5,��,20.6,80.6,0,0,0,0
2023-05-29T00:45:00+09:00,1.9,��,3.5,��,20.7,80.7,0,0,0,0
2023-05-29T00:46:00+09:00,2,��,3.6,�k��,20.7,80.9,0,0,0,0
2023-05-29T00:47:00+09:00,2.1,��,3.6,�k��,20.7,81,0,0,0,0
2023-05-29T00:48:00+09:00,2.2,��,3.6,�k��,20.6,80.8,0,0,0,0
2023-05-29T00:49:00+09:00,2.2,���쐼,3.6,�k��,20.6,80.9,0,0,0,0
2023-05-29T00:50:00+09:00,2.1,���쐼,3.6,�k��,20.6,81,0,0,0,0
2023-05-29T00:51:00+09:00,2,���쐼,3.6,�k��,20.6,81.1,0,0,0,0
2023-05-29T00:52:00+09:00,1.8,��,3.6,�k��,20.6,81.1,0,0,0,0
2023-05-29T00:53:00+09:00,1.7,��,3.6,�k��,20.6,81.2,0,0,0,0
2023-05-29T00:54:00+09:00,1.6,��,3.6,�k��,20.6,81.1,0,0,0,0
2023-05-29T00:55:00+09:00,1.6,��,3.6,�k��,20.6,81.3,0,0,0,0
2023-05-29T00:56:00+09:00,1.5,��,2.9,���쐼,20.6,81.3,0,0,0,0
2023-05-29T00:57:00+09:00,1.6,��,4,��,20.6,81.5,0,0,0,0
2023-05-29T00:58:00+09:00,1.8,��,4.4,���쐼,20.6,81.7,0,0,0,0
2023-05-29T00:59:00+09:00,2,��,4.5,��,20.6,81.8,0,0,0,0
2023-05-29T01:00:00+09:00,2.2,��,4.5,��,20.6,82,0,0,0,0
2023-05-29T01:01:00+09:00,2.5,��,4.5,��,20.6,81.9,0,0,0,0
2023-05-29T01:02:00+09:00,2.6,��,4.5,��,20.6,82,0,0,0,0
2023-05-29T01:03:00+09:00,2.7,��,4.5,��,20.6,82.1,0,0,0,0
2023-05-29T01:04:00+09:00,2.8,��,4.5,��,20.6,82,0,0,0,0
2023-05-29T01:05:00+09:00,2.9,��,4.5,��,20.6,82.1,0,0,0,0
2023-05-29T01:06:00+09:00,2.8,��,4.5,��,20.6,82.5,0,0,0,0
2023-05-29T01:07:00+09:00,2.7,��,4.5,��,20.6,82.7,0,0,0,0
2023-05-29T01:08:00+09:00,2.7,��,4.6,��,20.6,82.8,0,0,0,0
2023-05-29T01:09:00+09:00,2.6,��,4.6,��,20.6,83,0,0,0,0
2023-05-29T01:10:00+09:00,2.6,��,4.8,���쐼,20.6,83.3,0,0,0,0
2023-05-29T01:11:00+09:00,2.6,��,4.8,���쐼,20.6,82.9,0,0,0,0
2023-05-29T01:12:00+09:00,2.5,��,4.8,���쐼,20.6,82.9,0,0,0,0
2023-05-29T01:13:00+09:00,2.6,��,4.8,���쐼,20.6,83,0,0,0,0
2023-05-29T01:14:00+09:00,2.7,��,4.8,���쐼,20.5,82.9,0,0,0,0
2023-05-29T01:15:00+09:00,2.7,��,4.8,���쐼,20.5,83.1,0,0,0,0
2023-05-29T01:16:00+09:00,2.8,��,4.8,���쐼,20.5,83.3,0,0,0,0
2023-05-29T01:17:00+09:00,3,��,4.8,���쐼,20.5,83.4,0,0,0,0
2023-05-29T01:18:00+09:00,3,��,4.8,���쐼,20.5,83.6,0,0,0,0
2023-05-29T01:19:00+09:00,2.9,��,4.8,���쐼,20.5,83.6,0,0,0,0
2023-05-29T01:20:00+09:00,2.9,��,4.5,��,20.5,83.6,0,0,0,0
2023-05-29T01:21:00+09:00,2.9,��,4.5,��,20.5,83.6,0,0,0,0
2023-05-29T01:22:00+09:00,2.9,��,4.5,��,20.5,83.6,0,0,0,0
2023-05-29T01:23:00+09:00,2.8,��,4.5,��,20.5,83.8,0,0,0,0
2023-05-29T01:24:00+09:00,,,,,,,,,,
2023-05-29T01:25:00+09:00,2.7,���쐼,4.5,��,20.5,84,0,0,0,0
2023-05-29T01:26:00+09:00,2.6,���쐼,4.5,��,20.5,84.2,0,0,0,0
2023-05-29T01:27:00+09:00,2.6,���쐼,4.5,��,20.5,84.2,0,0,0,0
2023-05-29T01:28:00+09:00,2.5,���쐼,4.5,��,20.5,84.3,0,0,0,0
2023-05-29T01:29:00+09:00,2.4,���쐼,4.4,���쐼,20.5,84.4,0,0,0,0
2023-05-29T01:30:00+09:00,2.4,���쐼,4.4,���쐼,20.5,84.5,0,0,0,0
2023-05-29T01:31:00+09:00,2.4,���쐼,4.4,���쐼,20.5,84.5,0,0,0,0
2023-05-29T01:32:00+09:00,2.5,���쐼,4.4,���쐼,20.5,84.8,0,0,0,0
2023-05-29T01:33:00+09:00,2.6,���쐼,4.4,���쐼,20.5,84.7,0,0,0,0
2023-05-29T01:34:00+09:00,2.7,���쐼,4.4,���쐼,20.4,84.8,0,0,0,0
2023-05-29T01:35:00+09:00,2.7,���쐼,4.4,���쐼,20.4,84.8,0,0,0,0
2023-05-29T01:36:00+09:00,2.8,���쐼,4.4,���쐼,20.4,85,0,0,0,0
2023-05-29T01:37:00+09:00,2.8,��,4.4,���쐼,20.4,85,0,0,0,0
2023-05-29T01:38:00+09:00,2.9,���쐼,4.4,���쐼,20.4,85.1,0,0,0,0
2023-05-29T01:39:00+09:00,3,���쐼,4.4,��,20.4,85.3,0,0,0,0
2023-05-29T01:40:00+09:00,3.1,���쐼,4.5,���k��,20.4,85.3,0,0,0,0
2023-05-29T01:41:00+09:00,3.1,���쐼,4.5,���k��,20.4,85.3,0,0,0,0
2023-05-29T01:42:00+09:00,3.1,���쐼,4.7,���쐼,20.4,85.4,0,0,0,0
2023-05-29T01:43:00+09:00,3.2,���쐼,5,��,20.4,85.4,0,0,0,0
2023-05-29T01:44:00+09:00,3.2,���쐼,5,��,20.4,85.5,0,0,0,0
2023-05-29T01:45:00+09:00,3.3,���쐼,5,��,20.4,85.6,0,0,0,0
2023-05-29T01:46:00+09:00,3.2,���쐼,5,��,20.4,85.7,0,0,0,0
2023-05-29T01:47:00+09:00,3.3,���쐼,5.2,��,20.4,85.7,0,0,0,0
2023-05-29T01:48:00+09:00,3.3,���쐼,5.2,��,20.4,85.8,0,0,0,0
2023-05-29T01:49:00+09:00,3.4,���쐼,5.2,��,20.4,85.8,0,0,0,0
2023-05-29T01:50:00+09:00,3.4,��,5.2,��,20.3,85.8,0,0,0,0
2023-05-29T01:51:00+09:00,3.5,��,5.3,���쐼,20.3,85.8,0,0,0,0
2023-05-29T01:52:00+09:00,3.5,��,5.3,���쐼,20.3,85.9,0,0,0,0
2023-05-29T01:53:00+09:00,3.3,��,5.3,���쐼,20.3,85.9,0,0,0,0
2023-05-29T01:54:00+09:00,3.3,��,5.3,���쐼,20.3,86,0,0,0,0
2023-05-29T01:55:00+09:00,3.2,��,5.3,���쐼,20.4,86.1,0,0,0,0
2023-05-29T01:56:00+09:00,3.3,��,5.3,���쐼,20.3,86,0,0,0,0
2023-05-29T01:57:00+09:00,3.3,��,5.3,���쐼,20.4,86.1,0,0,0,0
2023-05-29T01:58:00+09:00,3.2,���쐼,5.3,���쐼,20.4,86.2,0,0,0,0
2023-05-29T01:59:00+09:00,3.1,���쐼,5.3,���쐼,20.4,86.2,0,0,0,0
2023-05-29T02:00:00+09:00,3,���쐼,5.3,���쐼,20.4,86.4,0,0,0,0
2023-05-29T02:01:00+09:00,2.9,���쐼,4.9,�쐼,20.4,86.5,0,0,0,0
2023-05-29T02:02:00+09:00,2.7,���쐼,4.9,�쐼,20.5,86.3,0,0,0,0
2023-05-29T02:03:00+09:00,2.7,���쐼,4.9,�쐼,20.4,86.3,0,0,0,0
2023-05-29T02:04:00+09:00,2.7,���쐼,4.9,�쐼,20.5,86.2,0,0,0,0
2023-05-29T02:05:00+09:00,2.7,���쐼,4.9,�쐼,20.5,86.3,0,0,0,0
2023-05-29T02:06:00+09:00,2.6,���쐼,4.9,�쐼,20.5,86.3,0,0,0,0
2023-05-29T02:07:00+09:00,2.5,���쐼,4,���쐼,20.5,86.2,0,0,0,0
2023-05-29T02:08:00+09:00,2.4,���쐼,4.2,���쐼,20.5,86.3,0,0,0,0
2023-05-29T02:09:00+09:00,2.4,���쐼,4.8,�쐼,20.5,86.1,0,0,0,0
2023-05-29T02:10:00+09:00,2.6,���쐼,5,���쐼,20.5,86.2,0,0,0,0
2023-05-29T02:11:00+09:00,2.7,���쐼,5,���쐼,20.5,86.1,0,0,0,0
2023-05-29T02:12:00+09:00,2.8,���쐼,5,���쐼,20.5,86.2,0,0,0,0
2023-05-29T02:13:00+09:00,3.1,���쐼,6.9,���쐼,20.5,86.4,0,0,0,0
2023-05-29T02:14:00+09:00,3.2,���쐼,6.9,���쐼,20.6,86.6,0,0,0,0
2023-05-29T02:15:00+09:00,3.2,���쐼,6.9,���쐼,20.6,86.5,0,0,0,0
2023-05-29T02:16:00+09:00,3.3,���쐼,6.9,���쐼,20.5,86.2,0,0,0,0
2023-05-29T02:17:00+09:00,3.3,���쐼,6.9,���쐼,20.5,86.1,0,0,0,0
2023-05-29T02:18:00+09:00,3.3,��,6.9,���쐼,20.5,86.3,0,0,0,0
2023-05-29T02:19:00+09:00,3.3,���쐼,6.9,���쐼,20.5,86.4,0,0,0,0
2023-05-29T02:20:00+09:00,3.3,���쐼,6.9,���쐼,20.5,86.8,0,0,0,0
2023-05-29T02:21:00+09:00,3.3,���쐼,6.9,���쐼,20.5,86.8,0,0,0,0
2023-05-29T02:22:00+09:00,3.3,���쐼,6.9,���쐼,20.5,86.7,0,0,0,0
2023-05-29T02:23:00+09:00,3.3,���쐼,6.8,�쐼,20.6,86.9,0,0,0,0
2023-05-29T02:24:00+09:00,3.2,���쐼,6.8,�쐼,20.6,86.8,0,0,0,0
2023-05-29T02:25:00+09:00,3.4,���쐼,6.8,�쐼,20.6,86.9,0,0,0,0
2023-05-29T02:26:00+09:00,3.3,���쐼,6.8,�쐼,20.6,87,0,0,0,0
2023-05-29T02:27:00+09:00,3.3,���쐼,6.8,�쐼,20.6,86.9,0,0,0,0
2023-05-29T02:28:00+09:00,3.2,�쐼,6.8,�쐼,20.6,86.9,0,0,0,0
2023-05-29T02:29:00+09:00,3.2,�쐼,6.8,�쐼,20.6,86.7,0,0,0,0
2023-05-29T02:30:00+09:00,3,�쐼,6.8,�쐼,20.6,86.7,0,0,0,0
2023-05-29T02:31:00+09:00,3,���쐼,6.8,�쐼,20.6,86.6,0,0,0,0
2023-05-29T02:32:00+09:00,3.1,���쐼,6.8,�쐼,20.6,86.6,0,0,0,0
2023-05-29T02:33:00+09:00,2.8,���쐼,5.3,���쐼,20.6,86.5,0,0,0,0
2023-05-29T02:34:00+09:00,2.6,���쐼,5.3,���쐼,20.6,86.7,0,0,0,0
2023-05-29T02:35:00+09:00,2.5,���쐼,4.8,�쐼,20.6,86.7,0,0,0,0
2023-05-29T02:36:00+09:00,2.4,���쐼,4.8,�쐼,20.6,86.7,0,0,0,0
2023-05-29T02:37:00+09:00,2.4,���쐼,4.8,�쐼,20.6,86.8,0,0,0,0
2023-05-29T02:38:00+09:00,2.6,���쐼,5,���쐼,20.6,86.8,0,0,0,0
2023-05-29T02:39:00+09:00,2.9,���쐼,6.6,���쐼,20.6,86.6,0,0,0,0
2023-05-29T02:40:00+09:00,3.2,���쐼,6.6,���쐼,20.7,86.8,0,0,0,0
2023-05-29T02:41:00+09:00,3.1,���쐼,6.6,���쐼,20.7,86.8,0,0,0,0
2023-05-29T02:42:00+09:00,2.9,���쐼,6.6,���쐼,20.6,86.6,0,0,0,0
2023-05-29T02:43:00+09:00,3,���쐼,6.6,���쐼,20.6,86.7,0,0,0,0
2023-05-29T02:44:00+09:00,3.2,���쐼,6.6,���쐼,20.7,86.6,0,0,0,0
2023-05-29T02:45:00+09:00,3.3,���쐼,6.6,���쐼,20.7,86.6,0,0,0,0
2023-05-29T02:46:00+09:00,3.3,���쐼,6.6,���쐼,20.6,86.6,0,0,0,0
2023-05-29T02:47:00+09:00,3.4,���쐼,6.6,���쐼,20.7,86.6,0,0,0,0
2023-05-29T02:48:00+09:00,3.3,���쐼,6.6,���쐼,20.7,86.6,0,0,0,0
2023-05-29T02:49:00+09:00,3,���쐼,5.6,�쐼,20.6,86.5,0,0,0,0
2023-05-29T02:50:00+09:00,2.8,���쐼,5.6,�쐼,20.6,86.4,0,0,0,0
2023-05-29T02:51:00+09:00,2.8,���쐼,5.6,�쐼,20.6,86.5,0,0,0,0
2023-05-29T02:52:00+09:00,3,���쐼,5.6,�쐼,20.6,86.6,0,0,0,0
2023-05-29T02:53:00+09:00,2.9,���쐼,5.2,��쐼,20.6,86.7,0,0,0,0
2023-05-29T02:54:00+09:00,2.8,���쐼,5.2,��쐼,20.6,86.9,0,0,0,0
2023-05-29T02:55:00+09:00,2.8,���쐼,5.2,��쐼,20.6,87,0,0,0,0
2023-05-29T02:56:00+09:00,2.8,���쐼,5.2,��쐼,20.6,86.9,0,0,0,0
2023-05-29T02:57:00+09:00,2.7,���쐼,4.8,���쐼,20.6,87,0,0,0,0
2023-05-29T02:58:00+09:00,2.6,���쐼,4.8,���쐼,20.6,87.1,0,0,0,0
2023-05-29T02:59:00+09:00,2.6,���쐼,4.8,���쐼,20.6,87.2,0,0,0,0
2023-05-29T03:00:00+09:00,2.7,���쐼,4.8,���쐼,20.6,87.1,0,0,0,0
2023-05-29T03:01:00+09:00,2.7,���쐼,4.7,��,20.5,87.2,0,0,0,0
2023-05-29T03:02:00+09:00,2.6,���쐼,5.2,���쐼,20.6,87.3,0,0,0,0
2023-05-29T03:03:00+09:00,2.7,���쐼,5.5,��,20.5,87.1,0,0,0,0
2023-05-29T03:04:00+09:00,2.9,���쐼,6.6,���쐼,20.5,87.3,0,0,0,0
2023-05-29T03:05:00+09:00,3.1,���쐼,8,���쐼,20.6,87.6,0,0,0,0
2023-05-29T03:06:00+09:00,3.2,���쐼,8,���쐼,20.6,87.6,0,0,0,0
2023-05-29T03:07:00+09:00,3.4,���쐼,8,���쐼,20.6,87.6,0,0,0,0
2023-05-29T03:08:00+09:00,3.5,���쐼,8,���쐼,20.6,87.4,0,0,0,0
2023-05-29T03:09:00+09:00,3.8,���쐼,8,���쐼,20.7,87.5,0,0,0,0
2023-05-29T03:10:00+09:00,3.9,���쐼,8,���쐼,20.7,87.4,0,0,0,0
2023-05-29T03:11:00+09:00,4.1,���쐼,8,���쐼,20.6,87.1,0,0,0,0
2023-05-29T03:12:00+09:00,4,���쐼,8,���쐼,20.6,87.1,0,0,0,0
2023-05-29T03:13:00+09:00,4,���쐼,8,���쐼,20.6,87.1,0,0,0,0
2023-05-29T03:14:00+09:00,3.9,���쐼,8,���쐼,20.6,87.3,0,0,0,0
2023-05-29T03:15:00+09:00,3.9,���쐼,7.3,���쐼,20.6,87.3,0,0,0,0
2023-05-29T03:16:00+09:00,3.9,���쐼,7.3,���쐼,20.6,87.4,0,0,0,0
2023-05-29T03:17:00+09:00,3.9,���쐼,7.3,���쐼,20.6,87.4,0,0,0,0
2023-05-29T03:18:00+09:00,3.9,���쐼,6.5,��,20.6,87.4,0,0,0,0
2023-05-29T03:19:00+09:00,3.9,���쐼,6.9,��,20.6,87.2,0,0,0,0
2023-05-29T03:20:00+09:00,4,���쐼,6.9,��,20.6,87.3,0,0,0,0
2023-05-29T03:21:00+09:00,3.9,���쐼,6.9,��,20.6,87.4,0,0,0,0
2023-05-29T03:22:00+09:00,4.1,���쐼,6.9,��,20.5,87.3,0,0,0,0
2023-05-29T03:23:00+09:00,4.2,���쐼,6.9,��,20.5,87.2,0,0,0,0
2023-05-29T03:24:00+09:00,4.2,���쐼,6.9,��,20.5,87.5,0,0,0,0
2023-05-29T03:25:00+09:00,4.2,���쐼,6.9,��,20.5,87.8,0,0,0,0
2023-05-29T03:26:00+09:00,4.2,��,6.9,��,20.5,87.8,0,0,0,0
2023-05-29T03:27:00+09:00,4.2,��,6.9,��,20.4,87.7,0,0,0,0
2023-05-29T03:28:00+09:00,4.2,��,6.9,��,20.4,87.6,0,0,0,0
2023-05-29T03:29:00+09:00,3.9,��,6.9,��,20.4,87.7,0,0,0,0
2023-05-29T03:30:00+09:00,3.9,��,6.9,��,20.3,87.7,0,0,0,0
2023-05-29T03:31:00+09:00,3.9,��,6.9,��,20.3,87.8,0,0,0,0
2023-05-29T03:32:00+09:00,3.7,��,6.9,��,20.3,88.1,0,0,0,0
2023-05-29T03:33:00+09:00,3.6,��,6.9,��,20.3,88.2,0,0,0,0
2023-05-29T03:34:00+09:00,3.4,��,6.9,��,20.3,88.4,0,0,0,0
2023-05-29T03:35:00+09:00,3.3,��,6.3,���k��,20.3,88.4,0,0,0,0
2023-05-29T03:36:00+09:00,3.2,��,6.3,���k��,20.3,88.4,0,0,0,0
2023-05-29T03:37:00+09:00,3.2,��,6.3,���k��,20.4,88.6,0,0,0,0
2023-05-29T03:38:00+09:00,3.2,��,6.3,���k��,20.3,88.6,0,0,0,0
2023-05-29T03:39:00+09:00,3.3,��,6.3,���k��,20.4,88.7,0,0,0,0
2023-05-29T03:40:00+09:00,3.1,��,5.9,���쐼,20.4,88.8,0,0,0,0
2023-05-29T03:41:00+09:00,3,��,5.9,���쐼,20.3,88.4,0,0,0,0
2023-05-29T03:42:00+09:00,3,��,5.9,���쐼,20.3,88.5,0,0,0,0
2023-05-29T03:43:00+09:00,3.2,��,5.9,���쐼,20.3,88.4,0,0,0,0
2023-05-29T03:44:00+09:00,3.3,��,5.9,���쐼,20.3,88.5,0,0,0,0
2023-05-29T03:45:00+09:00,3.4,��,5.9,���쐼,20.3,88.7,0,0,0,0
2023-05-29T03:46:00+09:00,3.4,��,5.8,���쐼,20.3,88.7,0,0,0,0
2023-05-29T03:47:00+09:00,3.4,��,5.8,���쐼,20.3,88.7,0,0,0,0
2023-05-29T03:48:00+09:00,3.4,��,5.8,���쐼,20.3,88.9,0,0,0,0
2023-05-29T03:49:00+09:00,3.2,��,5.8,���쐼,20.3,88.9,0,0,0,0
2023-05-29T03:50:00+09:00,3.4,��,6.1,��,20.3,88.8,0,0,0,0
2023-05-29T03:51:00+09:00,3.6,��,6.1,��,20.3,88.6,0,0,0,0
2023-05-29T03:52:00+09:00,3.7,��,6.7,��,20.3,88.8,0,0,0,0
2023-05-29T03:53:00+09:00,3.8,��,7,��,20.3,88.7,0,0,0,0
2023-05-29T03:54:00+09:00,4.1,��,7.1,��,20.3,88.8,0,0,0,0
2023-05-29T03:55:00+09:00,4.1,��,7.1,��,20.3,88.7,0,0,0,0
2023-05-29T03:56:00+09:00,4.2,��,7.1,��,20.3,89,0,0,0,0
2023-05-29T03:57:00+09:00,4.2,��,7.1,��,20.3,88.9,0,0,0,0
2023-05-29T03:58:00+09:00,4.2,��,7.1,��,20.3,88.8,0,0,0,0
2023-05-29T03:59:00+09:00,4.5,��,7.2,���쐼,20.3,89,0,0,0,0
2023-05-29T04:00:00+09:00,4.5,��,7.2,���쐼,20.3,88.9,0,0,0,0
2023-05-29T04:01:00+09:00,4.5,��,7.2,���쐼,20.3,88.9,0,0,0,0
2023-05-29T04:02:00+09:00,4.4,��,7.2,���쐼,20.3,89,0,0,0,0
2023-05-29T04:03:00+09:00,4.2,���쐼,7.2,���쐼,20.3,89.2,0,0,0,0
2023-05-29T04:04:00+09:00,3.9,���쐼,7.2,���쐼,20.3,89,0,0,0,0
2023-05-29T04:05:00+09:00,3.7,���쐼,7.2,���쐼,20.3,89.1,0,0,0,0
2023-05-29T04:06:00+09:00,3.7,���쐼,7.2,���쐼,20.3,89.2,0,0,0,0
2023-05-29T04:07:00+09:00,3.7,���쐼,7.2,���쐼,20.3,89.1,0,0,0,0
2023-05-29T04:08:00+09:00,3.6,���쐼,7.2,���쐼,20.3,89.2,0,0,0,0
2023-05-29T04:09:00+09:00,3.4,���쐼,6.1,��,20.4,89.4,0,0,0,0
2023-05-29T04:10:00+09:00,3.3,���쐼,5.8,��,20.4,89.6,0,0,0,0
2023-05-29T04:11:00+09:00,3.4,���쐼,6.3,��,20.5,89.5,0,0,0,0
2023-05-29T04:12:00+09:00,3.4,���쐼,6.3,��,20.4,89.2,0,0,0,0
2023-05-29T04:13:00+09:00,3.4,���쐼,6.3,��,20.4,89.3,0,0,0,0
2023-05-29T04:14:00+09:00,3.4,���쐼,6.3,��,20.4,89.3,0,0,0,0
2023-05-29T04:15:00+09:00,3.3,��,6.3,��,20.5,89.4,0,0,0,0
2023-05-29T04:16:00+09:00,3.3,��,6.3,��,20.5,89.6,0,0,0,0
2023-05-29T04:17:00+09:00,3.5,��,6.3,��,20.5,89.7,0,0,0,0
2023-05-29T04:18:00+09:00,3.5,��,6.3,��,20.5,89.5,0,0,0,0
2023-05-29T04:19:00+09:00,3.5,��,6.3,��,20.5,89.5,0,0,0,0
2023-05-29T04:20:00+09:00,3.4,��,6.3,��,20.5,89.4,0,0,0,0
2023-05-29T04:21:00+09:00,3.3,��,6.1,���k��,20.4,89.2,0,0,0,0
2023-05-29T04:22:00+09:00,3.1,��,6.1,���k��,20.4,89.3,0,0,0,0
2023-05-29T04:23:00+09:00,3.2,��,6.1,���k��,20.5,89.5,0,0,0,0
2023-05-29T04:24:00+09:00,3.1,��,6.1,���k��,20.5,89.5,0,0,0,0
2023-05-29T04:25:00+09:00,3.3,��,6.1,���k��,20.5,89.8,0,0,0,0
2023-05-29T04:26:00+09:00,3.3,��,6.3,���쐼,20.5,89.7,0,0,0,0
2023-05-29T04:27:00+09:00,3.3,��,6.3,���쐼,20.5,89.3,0,0,0,0
2023-05-29T04:28:00+09:00,3.2,��,6.3,���쐼,20.5,89.3,0,0,0,0
2023-05-29T04:29:00+09:00,3.3,��,6.3,���쐼,20.5,89.8,0,0,0,0
2023-05-29T04:30:00+09:00,3.4,���쐼,6.3,���쐼,20.6,90,0,0,0,0
2023-05-29T04:31:00+09:00,3.4,��,6.3,���쐼,20.6,89.6,0,0,0,0
2023-05-29T04:32:00+09:00,3.5,��,6.3,���쐼,20.5,89.5,0,0,0,0
2023-05-29T04:33:00+09:00,3.7,��,6.8,��,20.5,89.4,0,0,0,0
2023-05-29T04:34:00+09:00,3.8,��,6.8,��,20.4,89.2,0,0,0,0
2023-05-29T04:35:00+09:00,3.9,��,6.8,��,20.4,89.2,0,0,0,0
2023-05-29T04:36:00+09:00,3.7,��,6.8,��,20.5,89.9,0,0,0,0
2023-05-29T04:37:00+09:00,3.7,��,6.8,��,20.5,90,0,0,0,0
2023-05-29T04:38:00+09:00,3.8,��,6.8,��,20.5,89.5,0,0,0,0
2023-05-29T04:39:00+09:00,3.7,���쐼,6.8,��,20.5,89.4,0,0,0,0
2023-05-29T04:40:00+09:00,3.7,���쐼,6.8,��,20.5,89.5,0,0,0,0
2023-05-29T04:41:00+09:00,3.7,���쐼,6.8,��,20.5,89.7,0,0,0,0
2023-05-29T04:42:00+09:00,3.7,���쐼,6.8,��,20.5,89.7,0,0,0,0
2023-05-29T04:43:00+09:00,3.6,���쐼,5.9,���쐼,20.5,89.7,0,0,0,0
2023-05-29T04:44:00+09:00,3.6,���쐼,5.9,���쐼,20.5,89.8,0,0,0,0
2023-05-29T04:45:00+09:00,3.6,���쐼,6.7,��,20.5,89.7,0,0,0,0
2023-05-29T04:46:00+09:00,3.7,���쐼,7.4,��,20.5,90,0,0,0,0
2023-05-29T04:47:00+09:00,3.8,��,7.4,��,20.5,90,0,0,0,0
2023-05-29T04:48:00+09:00,4.1,��,7.4,��,20.5,90.1,0,0,0,0
2023-05-29T04:49:00+09:00,4.3,��,7.4,��,20.5,90,0,0,0,0
2023-05-29T04:50:00+09:00,4.3,��,7.4,��,20.5,90,0,0,0,0
2023-05-29T04:51:00+09:00,4.4,��,7.4,��,20.5,90.1,0,0,0,0
2023-05-29T04:52:00+09:00,4.5,��,7.4,��,20.5,90.2,0,0,0,0
2023-05-29T04:53:00+09:00,4.6,��,7.4,��,20.5,90.4,0,0,0,0
2023-05-29T04:54:00+09:00,4.6,��,7.4,��,20.5,90.4,0,0,0,0
2023-05-29T04:55:00+09:00,4.7,��,7.4,��,20.5,90.5,0,0,0,0
2023-05-29T04:56:00+09:00,4.7,��,7,��,20.5,90.5,0,0,0,0
2023-05-29T04:57:00+09:00,4.7,��,7.2,��,20.4,90.4,0,0,0,0
2023-05-29T04:58:00+09:00,4.7,��,8.1,��,20.5,90.7,0,0,0,0
2023-05-29T04:59:00+09:00,4.7,��,8.1,��,20.5,90.8,0,0,0,0
2023-05-29T05:00:00+09:00,5,��,8.1,��,20.5,91.1,0,0,0,0
2023-05-29T05:01:00+09:00,5.1,��,8.1,��,20.4,90.7,0,0,0,0
2023-05-29T05:02:00+09:00,5.1,��,8.1,��,20.4,90.7,0,0,0,0
2023-05-29T05:03:00+09:00,5.3,��,8.1,��,20.4,91.1,0,0,0,0
2023-05-29T05:04:00+09:00,5.3,��,8.1,��,20.4,91.2,0,0,0,0
2023-05-29T05:05:00+09:00,5.4,��,8.1,��,20.5,91.5,0,0,0,0
2023-05-29T05:06:00+09:00,5.3,��,8.1,��,20.4,91.2,0,0,0,0
2023-05-29T05:07:00+09:00,5.2,��,8.1,��,20.4,91.2,0,0,0,0
2023-05-29T05:08:00+09:00,5.1,��,8.1,��,20.4,91.5,0,0,0,0
2023-05-29T05:09:00+09:00,5.2,��,8.1,��,20.4,91.4,0,0,0,0
2023-05-29T05:10:00+09:00,5.2,��,7.8,��,20.4,91.6,0,0,0,0
2023-05-29T05:11:00+09:00,5,��,7.7,���k��,20.4,91.8,0,0,0,0
2023-05-29T05:12:00+09:00,5,��,7.7,���k��,20.5,92.1,0,0,0,0
2023-05-29T05:13:00+09:00,4.9,��,7.7,���k��,20.4,91.7,0,0,0,0
2023-05-29T05:14:00+09:00,4.8,��,7.1,��,20.4,91.6,0,0,0,0
2023-05-29T05:15:00+09:00,4.7,��,6.9,��,20.4,91.8,0,0,0,0
2023-05-29T05:16:00+09:00,4.6,��,6.9,��,20.4,91.9,0,0,0,0
2023-05-29T05:17:00+09:00,4.5,��,6.9,��,20.4,91.9,0,0,0,0
2023-05-29T05:18:00+09:00,4.3,��,6.5,��,20.4,91.6,0,0,0,0
2023-05-29T05:19:00+09:00,4.3,��,6.9,�쐼,20.4,91.7,0,0,0,0
2023-05-29T05:20:00+09:00,4.2,��,6.9,�쐼,20.4,91.7,0,0,0,0
2023-05-29T05:21:00+09:00,4.1,��,6.9,�쐼,20.3,91.7,0,0,0,0
2023-05-29T05:22:00+09:00,4,��,6.9,�쐼,20.4,91.8,0,0,0,0
2023-05-29T05:23:00+09:00,3.8,��,6.9,�쐼,20.4,91.8,0,0,0,0
2023-05-29T05:24:00+09:00,3.7,��,6.9,�쐼,20.4,92,0,0,0,0
2023-05-29T05:25:00+09:00,3.7,��,6.9,�쐼,20.4,91.8,0,0,0,0
2023-05-29T05:26:00+09:00,3.7,��,6.9,�쐼,20.4,91.8,0,0,0,0
2023-05-29T05:27:00+09:00,3.6,��,6.9,�쐼,20.5,92,0,0,0,0
2023-05-29T05:28:00+09:00,3.6,��,6.9,�쐼,20.5,91.6,0,0,0,0
2023-05-29T05:29:00+09:00,3.4,��,5.9,��,20.5,91.6,0,0,0,0
2023-05-29T05:30:00+09:00,3.2,��,5.4,���쐼,20.5,91.4,0,0,0,0
2023-05-29T05:31:00+09:00,3.1,���쐼,5.2,��,20.5,91.5,0,0,0,0
2023-05-29T05:32:00+09:00,3,���쐼,5.2,��,20.5,91.5,0,0,0,0
2023-05-29T05:33:00+09:00,2.9,���쐼,5.2,��,20.5,91.3,0,0,0,0
2023-05-29T05:34:00+09:00,2.8,���쐼,5.2,��,20.5,91.1,0,0,0,0
2023-05-29T05:35:00+09:00,2.7,���쐼,5.2,��,20.5,91.2,0,0,0,0
2023-05-29T05:36:00+09:00,2.6,���쐼,5.2,��,20.6,91.2,0,0,0,0
2023-05-29T05:37:00+09:00,2.6,���쐼,5.2,��,20.5,90.9,0,0,0,0
2023-05-29T05:38:00+09:00,2.6,���쐼,5.2,��,20.5,90.8,0,0,0,0
2023-05-29T05:39:00+09:00,2.5,��,4.6,��,20.5,90.7,0,0,0,0
2023-05-29T05:40:00+09:00,2.5,��,4.6,��,20.6,90.8,0,0,0,0
2023-05-29T05:41:00+09:00,2.5,��,4.6,��,20.5,90.6,0,0,0,0
2023-05-29T05:42:00+09:00,2.4,��,4.6,��,20.5,90.6,0,0,0,0
2023-05-29T05:43:00+09:00,2.5,��,4.6,��,20.5,90.6,0,0,0,0
2023-05-29T05:44:00+09:00,2.6,��,4.6,��,20.6,90.7,0,0,0,0
2023-05-29T05:45:00+09:00,2.8,��,6.4,���쐼,20.5,90.5,0,0,0,0
2023-05-29T05:46:00+09:00,2.9,��,6.4,���쐼,20.6,90.4,0,0,0,0
2023-05-29T05:47:00+09:00,2.9,��,6.4,���쐼,20.6,90.5,0,0,0,0
2023-05-29T05:48:00+09:00,3,��,6.4,���쐼,20.6,90.7,0,0,0,0
2023-05-29T05:49:00+09:00,3.2,��,6.5,��,20.6,90.6,0,0,0,0
2023-05-29T05:50:00+09:00,3.4,��,6.5,��,20.6,90.3,0,0,0,0
2023-05-29T05:51:00+09:00,3.6,��,6.5,��,20.6,90.3,0,0,0,0
2023-05-29T05:52:00+09:00,3.9,��,6.5,��,20.6,90.1,0,0,0,0
2023-05-29T05:53:00+09:00,4.1,��,6.5,��,20.6,89.9,0,0,0,0
2023-05-29T05:54:00+09:00,4.2,��,6.5,��,20.6,90,0,0,0,0
2023-05-29T05:55:00+09:00,4.3,��,7.8,��,20.6,89.9,0,0,0,0
2023-05-29T05:56:00+09:00,4.3,��,7.8,��,20.6,90.1,0,0,0,0
2023-05-29T05:57:00+09:00,4.3,��,7.8,��,20.6,89.7,0,0,0,0
2023-05-29T05:58:00+09:00,4.4,��,7.8,��,20.6,89.8,0,0,0,0
2023-05-29T05:59:00+09:00,4.3,��,7.8,��,20.6,89.6,0,0,0,0
2023-05-29T06:00:00+09:00,4.3,��,7.8,��,20.6,89.5,0,0,0,0
2023-05-29T06:01:00+09:00,4.2,��,7.8,��,20.5,89.6,0,0,0,0
2023-05-29T06:02:00+09:00,4.1,��,7.8,��,20.6,89.7,0,0,0,0
2023-05-29T06:03:00+09:00,4,��,7.8,��,20.5,89.5,0,0,0,0
2023-05-29T06:04:00+09:00,4,��,7.8,��,20.5,89.3,0,0,0,0
2023-05-29T06:05:00+09:00,3.9,��,6.3,��,20.5,89.5,0,0,0,0
2023-05-29T06:06:00+09:00,3.8,��,6.3,��,20.5,89.6,0,0,0,0
2023-05-29T06:07:00+09:00,3.7,��,6.3,��,20.5,89.8,0,0,0,0
2023-05-29T06:08:00+09:00,3.8,��,6.5,��,20.5,89.5,0,0,0,0
2023-05-29T06:09:00+09:00,3.9,��,6.5,��,20.5,89.4,0,0,0,0
2023-05-29T06:10:00+09:00,3.9,��,6.5,��,20.5,89.4,0,0,0,0
2023-05-29T06:11:00+09:00,3.9,��,6.5,��,20.5,89.3,0,0,0,0
2023-05-29T06:12:00+09:00,3.9,��,6.5,��,20.5,89.3,0,0,0,0
2023-05-29T06:13:00+09:00,3.8,��,6.5,��,20.6,89.3,0,0,0,0
2023-05-29T06:14:00+09:00,3.7,��,6.5,��,20.6,89.1,0,0,0,0
2023-05-29T06:15:00+09:00,3.6,���쐼,6.5,��,20.6,88.9,0,0,0,0
2023-05-29T06:16:00+09:00,3.5,���쐼,6.5,��,20.6,88.9,0,0,0,0
2023-05-29T06:17:00+09:00,3.4,���쐼,6.5,��,20.6,88.6,0,0,0,0
2023-05-29T06:18:00+09:00,3.1,���쐼,5.8,��,20.6,88.6,0,0,0,0
2023-05-29T06:19:00+09:00,2.8,���쐼,5.8,��,20.6,88.6,0,0,0,0
2023-05-29T06:20:00+09:00,2.6,�쐼,4.6,�쐼,20.7,88.4,0,0,0,0
2023-05-29T06:21:00+09:00,2.7,�쐼,6.2,��쐼,20.6,88.1,0,0,0,0
2023-05-29T06:22:00+09:00,2.9,�쐼,6.2,��쐼,20.7,87.9,0,0,0,0
2023-05-29T06:23:00+09:00,3.1,�쐼,6.4,�쐼,20.7,87.9,0,0,0,0
2023-05-29T06:24:00+09:00,3.3,�쐼,6.8,�쐼,20.7,87.8,0,0,0,0
2023-05-29T06:25:00+09:00,3.4,�쐼,6.8,�쐼,20.8,87.8,0,0,0,0
2023-05-29T06:26:00+09:00,3.5,�쐼,6.8,�쐼,20.8,87.5,0,0,0,0
2023-05-29T06:27:00+09:00,3.7,�쐼,6.8,�쐼,20.8,87.2,0,0,0,0
2023-05-29T06:28:00+09:00,3.9,�쐼,6.8,�쐼,20.8,87,0,0,0,0
2023-05-29T06:29:00+09:00,4.3,�쐼,8.2,�쐼,20.8,86.8,0,0,0,0
2023-05-29T06:30:00+09:00,4.6,�쐼,8.2,�쐼,20.9,86.7,0,0,0,0
2023-05-29T06:31:00+09:00,4.5,�쐼,8.2,�쐼,20.9,86.6,0,0,0,0
2023-05-29T06:32:00+09:00,4.4,�쐼,8.2,�쐼,20.9,86.4,0,0,0,0
2023-05-29T06:33:00+09:00,4.3,�쐼,8.2,�쐼,20.9,86.3,0,0,0,0
2023-05-29T06:34:00+09:00,4.2,�쐼,8.2,�쐼,21,86,0,0,0,0
2023-05-29T06:35:00+09:00,4.1,�쐼,8.2,�쐼,21,86,0,0,0,0
2023-05-29T06:36:00+09:00,4,���쐼,8.2,�쐼,21,86,0,0,0,0
2023-05-29T06:37:00+09:00,4,���쐼,8.2,�쐼,21,85.8,0,0,0,0
2023-05-29T06:38:00+09:00,4.1,���쐼,8.2,�쐼,21,85.7,0,0,0,0
2023-05-29T06:39:00+09:00,4,���쐼,7.8,���쐼,21,85.5,0,0,0,0
2023-05-29T06:40:00+09:00,3.9,���쐼,7.8,���쐼,21,85.5,0,0,0,0
2023-05-29T06:41:00+09:00,3.9,���쐼,7.8,���쐼,21,85.4,0,0,0,0
2023-05-29T06:42:00+09:00,3.9,���쐼,7.8,���쐼,21,85.2,0,0,0,0